星链-37794(STARLINK-37794)

导读

STARLINK-37794(NORAD编号69310)是美国太空探索技术公司(SpaceX)星链(Starlink)低轨通信星座的组成卫星,大概率为第二代V2 mini批次卫星,预计2026年上半年随猎鹰9号火箭发射入轨。该卫星运行于约480-550公里高度的近地轨道,配备相控阵天线与激光星间链路,主要承担全球高速互联网接入服务,重点补充高纬度、偏远地区及航空航海等移动场景的网络覆盖能力,设计工作寿命4-5年,退役后将主动离轨再入大气层焚毁,是星链构建全球通信网络、缩小数字鸿沟的重要部署节点。

基本信息
目录编号:
69310
目录名称:
STARLINK-37794
国际标识:
2026-119Q
轨道中心:
EARTH
卫星名称:
星链-37794
卫星全名:
星链-37794(STARLINK-37794)
卫星状态:
在轨 (已飞行97 天)
发射日期:
2026-05-30 UTC
国别 :
美国 (US)
星等 :
--
轨道信息
数据来源 国际轨道数据
星历时间: 2026-09-03T09:39:48+0800
1天前
查看轨道信息
半长轴: 6843.68km
偏心率: 0.0001441
轨道倾角: 97.284°
近地点辐角 92.667°
升交点赤经 271.081°
平近点角 267.473°
近地点: 464.556km
远地点: 466.53km
周期: 93.906分钟
每日圈数: 15.334452
详细信息
固有亮度:
5
最大亮度:
2.5
卫星平台:
Starlink V1.0
覆盖范围:
全球
运营商:
太空探索技术公司
运营商所在国:
美国
制造商(研发单位):
太空探索技术公司
制造商所在国:
美国
使用方式:
暂无
卫星简介
Starlink 计划是 SpaceX 推出的全球卫星互联网项目,通过发射低轨道卫星,为全球尤其是偏远地区提供高速、低延迟的互联网服务。自 2019 年起,Starlink 已部署数千颗卫星,旨在缩小全球数字鸿沟,推动互联网普及。该项目还为军事、航空等行业提供通信支持,带来广泛经济效益。
2D轨道图
3D轨道图
轨道高度分析图
轨道倾角分析图
轨道综合分析图
查看轨道综合分析图
交会数据列表
事件ID 空间交会对象 最接近时刻(TCA) 交会距离 交会风险概率(CRP) 交会风险指数(CRI) 操作
CDM_260904-173805-326606-931022
2026-09-04T
17:38:40+0000
2.438 km
极远距离
1.834397E-6 低风险 0.4
CDM_260829-085705-080806-931021
2026-08-29T
08:57:32+0000
2.935 km
极远距离
1.371884E-6 低风险 0.38
CDM_260829-154204-831206-931022
2026-08-29T
15:42:52+0000
2.864 km
极远距离
1.239112E-6 低风险 0.37
CDM_260902-025206-508706-931021
2026-09-02T
02:52:14+0000
2.962 km
极远距离
8.259178E-7 极低风险 0.33